Regional Weather Roundup
Issued by NWS

Home | Current Version | Previous Version | Graphics & Text | Print | Product List | Glossary On
Versions: 1 2 3 4 5 6 7 8 9 10 11 12 13 14 15 16 17 18 19 20 21 22 23 24 25 26 27 28 29 30 31 32 33 34 35 36 37 38 39 40 41 42 43 44 45 46 47 48 49 50
000
ASUS43 KFSD 221602
RWRSD

WEATHER ROUNDUP FOR SOUTH DAKOTA
NATIONAL WEATHER SERVICE SIOUX FALLS SD
1000 AM CST THU FEB 22 2018

NOTE: "FAIR" INDICATES FEW OR NO CLOUDS BELOW 12,000 FEET WITH NO
SIGNIFICANT WEATHER AND/OR OBSTRUCTIONS TO VISIBILITY.


SDZ001>005-009-010-012>017-221700-
NORTHWEST AND NORTH CENTRAL SOUTH DAKOTA

CITY           SKY/WX    TMP DP  RH WIND       PRES   REMARKS
BUFFALO          N/A     -1  -8  72 CALM      30.06F
FAITH            N/A      3  -4  72 CALM      30.19F
MOBRIDGE       SUNNY     -3  -7  82 CALM      30.28S
$$

SDZ012>016-024>037-041>051-057-063-072>074-221700-
SOUTHWEST AND SOUTH CENTRAL SOUTH DAKOTA

CITY           SKY/WX    TMP DP  RH WIND       PRES   REMARKS
RAPID CTY ARPT SUNNY      5  -2  72 CALM      30.13F
PIERRE         PTSUNNY   11   8  88 SE7       30.29F WCI   0
CUSTER         SUNNY     20   9  62 CALM      29.98F
ELLSWORTH AFB  MOSUNNY    0  -4  82 W5        30.11F WCI -10
PHILIP         MOSUNNY    0  -4  83 CALM      30.23S
PINE RIDGE     CLOUDY    21  13  71 S17G23    30.12F WCI   7
SPEARFISH        N/A     16   5  62 CALM      30.08F
WINNER         CLOUDY    23  16  74 S10       30.29S WCI  12
$$

SDZ004>011-016>023-039-040-221700-
NORTHEAST SOUTH DAKOTA

CITY           SKY/WX    TMP DP  RH WIND       PRES   REMARKS
ABERDEEN       SUNNY     11   4  73 S3        30.41S
WATERTOWN      CLOUDY    18  12  77 S13       30.39F WCI   5
BROOKINGS      CLOUDY    19  15  84 SE13      30.42F WCI   6
SISSETON         N/A     11   6  81 SE12      30.45R WCI  -3
$$

SDZ017-020-022-023-036>040-048>070-221700-
SOUTHEAST SOUTH DAKOTA

CITY           SKY/WX    TMP DP  RH WIND       PRES   REMARKS
SIOUX FALLS    CLOUDY    21  16  81 E8        30.42F WCI  11
HURON          CLOUDY    19  14  81 SE13      30.40F WCI   6
CHAMBERLAIN    CLOUDY    22  19  89 E10       30.33F WCI  11
MITCHELL       CLOUDY    21  16  81 SE12      30.40F WCI   9
YANKTON        FLURRIES  20  17  88 E9        30.40F WCI   9
$$

ABBREVIATIONS USED IN REMARKS
   TC - TEMPERATURE IN CELSIUS
  WCI - WIND CHILL INDEX
   HX - HEAT INDEX
  VSB - VISIBILITY





USA.gov is the U.S. government's official web portal to all federal, state and local government web resources and services.